Dewpoint
30 31 31 32 31 31 30 30 31 30 30 28 26 26 26 25 25 25 25 25 24 23 23 24 24 24 23 22 22 21 21 21 21 22 23 21 20 20 20 20 20 19 19 19 18 19 19 19 20 20 21 21 21 20 19 18 18 18 19 18 17 17 17 17 17 17 17 18 18
30 30 30 32 32 30 30 29 29 29 28 27 26 26 25 25 25 25 24 24 24 23 23 23 24 23 22 22 22 21 21 20 20 20 21 20 19 18 19 20 19 18 17 17 17 18 18 18 19 20 20 20 20 19 18 18 17 17 18 17 17 17 17 17 17 17 17 17 17
27 27 27 28 28 27 26 26 26 26 26 27 26 26 25 25 25 25 24 24 23 23 22 22 22 22 22 21 21 21 21 21 20 19 19 19 19 19 19 18 18 18 18 17 16 17 17 18 19 19 20 19 19 18 18 19 19 18 17 16 16 17 17 17 16 17 17 17 17
25 25 25 25 25 25 24 24 24 25 25 27 26 25 25 25 25 25 25 24 23 22 21 21 19 19 21 21 20 20 21 22 21 20 19 18 18 18 18 17 18 17 16 16 16 16 16 17 18 19 19 18 17 17 17 18 18 17 16 16 16 16 16 16 16 16 17 17 18
25 25 25 25 25 24 24 24 24 24 25 26 25 25 25 25 25 25 25 24 23 22 21 20 18 18 19 20 20 19 19 20 23 21 19 18 18 18 18 18 17 17 16 16 16 16 16 17 18 18 17 17 17 16 16 17 17 16 16 17 17 16 16 16 16 17 18 18 18
25 24 24 24 24 25 25 25 24 24 24 24 23 22 23 23 24 24 23 23 22 22 21 21 20 20 20 20 20 19 19 19 20 19 17 16 17 17 17 17 16 15 16 16 16 15 14 14 16 17 17 18 16 16 16 17 17 16 16 16 16 16 16 16 17 18 18 18 18
24 23 23 22 23 24 25 25 24 23 23 22 21 21 21 22 22 23 22 22 21 21 21 22 21 20 19 18 18 18 19 19 18 17 16 17 17 16 16 16 14 15 15 15 15 15 15 13 16 17 17 18 17 16 16 16 16 16 16 15 16 16 17 17 17 18 18 18 18
23 23 22 21 21 21 22 23 23 23 22 22 21 21 21 21 21 22 21 21 21 20 20 21 19 18 17 16 16 16 16 15 16 16 16 17 16 15 14 13 13 13 13 13 14 14 14 14 16 16 16 16 17 16 15 14 14 14 14 15 16 16 16 16 16 16 17 17 17
24 24 23 23 22 22 21 21 22 22 21 21 21 21 21 22 21 21 21 21 21 20 19 19 17 16 16 16 15 15 15 14 14 14 14 15 14 13 13 13 13 13 13 13 13 12 13 14 15 16 16 16 16 15 13 13 12 12 13 15 16 17 17 16 16 16 17 18 17
24 24 24 24 24 23 22 23 22 22 22 21 21 22 23 24 22 21 21 21 20 19 19 18 16 16 15 15 14 14 14 14 14 13 13 13 14 13 12 12 12 12 12 12 12 13 13 14 14 13 13 14 13 13 12 12 12 12 13 15 15 15 16 16 16 17 17 17 16
23 23 23 24 24 24 24 24 23 23 23 22 21 21 22 23 22 21 20 19 18 17 17 17 16 16 15 15 15 15 14 14 13 13 12 12 13 13 12 12 12 12 12 12 12 12 13 13 13 12 12 14 13 13 12 12 12 12 12 14 15 14 14 15 16 16 16 16 17
23 23 23 23 22 23 23 24 23 23 22 22 20 20 21 21 21 20 18 17 18 17 17 17 16 16 15 15 15 15 15 14 13 13 13 12 12 12 12 12 12 11 11 11 12 12 13 13 12 12 12 13 13 13 12 12 12 12 12 13 14 14 13 13 14 14 15 16 17
22 22 21 21 21 21 22 22 21 21 21 20 18 18 18 20 20 18 17 16 17 16 16 17 17 16 15 14 14 14 14 13 13 13 13 13 12 12 11 11 12 12 12 12 12 13 13 13 13 13 12 12 13 13 13 13 13 12 12 12 12 12 12 12 12 14 16 17 17
20 20 20 20 20 20 20 20 20 20 19 19 17 17 17 17 18 18 17 16 16 16 16 16 17 17 16 14 14 14 13 13 13 13 13 13 12 12 12 12 12 12 12 12 13 13 13 13 13 13 13 12 12 13 13 13 13 12 12 12 12 12 12 12 12 14 15 16 17
18 18 18 18 18 18 18 18 18 19 19 19 17 16 16 15 16 17 17 15 15 16 16 16 15 16 16 15 15 14 14 14 13 13 13 13 12 12 12 12 12 13 13 13 14 14 14 13 13 13 13 12 12 12 12 12 12 12 12 12 12 12 12 12 13 14 15 15 16
16 16 16 16 16 16 16 16 17 17 18 18 17 16 16 15 16 17 17 16 16 16 16 15 14 14 15 17 16 16 15 14 14 13 13 13 13 13 13 13 14 14 14 14 14 14 14 14 13 13 13 12 12 12 12 12 12 12 12 12 12 12 13 14 15 15 16 16 16
16 16 16 16 16 16 16 16 16 17 17 17 17 17 17 17 16 17 18 18 16 16 15 15 15 15 16 17 17 16 16 15 14 14 14 14 14 14 14 14 15 15 15 15 14 14 14 14 13 13 13 12 12 12 12 13 13 13 13 13 13 13 14 16 16 16 17 17 18
15 15 15 15 16 16 16 16 16 16 17 17 17 17 18 18 17 17 18 19 17 16 15 15 16 16 16 16 16 16 17 16 15 15 15 15 15 15 15 15 16 15 15 15 14 14 14 14 13 13 13 12 12 13 13 14 14 14 14 14 14 15 16 17 17 18 18 19 20
15 16 16 16 16 16 16 17 17 16 16 17 17 17 17 17 17 16 16 17 17 17 16 16 16 16 16 16 15 16 18 17 16 15 15 15 15 15 15 16 16 15 15 15 14 14 14 14 13 13 12 12 13 13 14 15 15 15 15 15 16 16 17 18 19 19 20 20 20
16 16 16 16 16 16 17 17 17 16 16 17 17 17 17 17 17 16 16 16 17 17 16 16 16 16 16 16 16 16 16 17 16 16 16 16 16 16 16 16 16 15 15 15 14 14 14 13 13 13 13 14 14 15 15 16 16 16 16 17 17 18 19 20 20 21 21 21 21
16 16 17 17 17 17 17 17 17 17 17 17 17 17 17 17 16 16 16 17 17 17 16 16 16 16 16 16 16 16 16 18 17 16 16 16 16 16 16 16 16 15 15 15 14 14 14 13 13 13 14 15 16 16 16 17 17 17 18 19 19 20 21 21 21 21 21 21 21
17 18 18 19 18 18 18 18 18 17 17 17 17 17 16 16 16 16 16 17 17 17 16 17 17 17 16 16 16 16 16 17 17 16 16 16 16 16 16 16 15 15 15 15 14 14 14 14 14 15 16 16 17 17 18 18 19 19 20 20 21 21 21 22 22 22 22 22 21
18 19 19 20 19 19 19 19 18 18 17 17 17 17 16 16 16 16 16 16 16 16 16 16 17 17 17 16 16 16 16 16 16 16 16 16 16 16 16 16 15 15 15 15 15 15 16 16 16 16 17 18 18 18 19 20 20 21 21 21 21 22 22 22 22 22 22 22 21
19 20 20 20 19 19 19 19 18 18 17 17 17 17 16 16 16 16 16 15 15 15 15 15 16 16 16 16 16 16 16 16 16 16 16 16 16 15 15 15 15 15 15 15 18 20 21 20 19 19 19 19 19 20 20 20 21 21 21 21 22 22 22 22 22 22 22 22 21
20 21 20 19 19 18 18 18 18 18 18 18 17 17 16 16 16 16 15 15 15 15 15 15 16 16 16 16 16 16 16 16 16 16 16 16 16 16 16 16 16 15 15 17 23 25 26 25 24 22 21 20 20 20 21 21 21 21 21 22 22 22 22 22 22 22 21 21 21
21 21 21 20 19 18 18 18 18 18 18 18 17 17 16 16 16 16 15 15 15 15 15 15 15 17 19 18 17 16 16 16 16 16 16 16 16 16 16 16 16 15 16 20 25 26 27 28 27 26 24 22 21 21 21 21 21 21 22 22 22 21 21 21 21 21 21 21 21
21 21 21 20 19 18 18 18 18 18 18 17 17 16 16 16 16 16 15 15 15 15 15 16 16 19 21 18 17 16 16 16 16 16 16 16 16 16 16 16 16 15 17 23 26 27 27 28 28 28 26 24 23 22 22 22 22 22 22 21 21 21 21 21 21 21 22 21 21
21 21 20 20 18 18 18 18 18 17 17 16 16 16 16 16 15 15 15 15 15 15 16 16 18 19 19 18 17 17 16 16 17 17 16 16 16 16 16 16 16 17 20 25 27 27 27 28 28 28 27 25 24 23 23 22 22 22 21 21 21 21 21 21 21 21 21 21 21
21 21 20 19 18 17 17 17 17 16 16 16 16 16 15 15 15 15 15 15 16 16 17 18 19 19 18 18 17 17 17 17 16 16 16 16 16 16 16 16 16 19 23 27 27 27 27 27 27 28 28 27 26 25 23 22 21 21 21 21 21 21 21 21 21 21 21 21 21
21 20 19 18 17 17 17 17 17 16 16 16 15 15 15 14 14 15 15 16 17 18 19 20 20 19 18 18 17 17 17 17 17 16 16 15 15 16 16 18 17 19 23 27 27 27 27 27 27 27 27 28 26 25 22 21 21 21 21 21 21 21 21 21 22 22 22 21 21
20 19 18 17 17 17 17 17 16 16 16 15 15 14 14 14 15 16 17 18 19 21 21 21 20 19 18 19 18 18 18 17 17 16 16 15 16 17 17 17 16 18 22 26 26 26 26 26 27 27 27 27 26 24 22 21 21 21 21 21 21 21 21 21 21 21 21 21 21
19 18 17 17 16 16 16 16 16 15 15 14 14 14 14 14 17 18 19 20 20 21 21 21 19 18 18 18 18 17 17 17 16 16 16 16 16 16 16 16 15 18 21 25 25 26 26 26 26 26 27 27 26 24 22 21 21 21 21 21 21 21 21 21 21 21 21 21 21
18 17 17 16 16 16 16 15 15 15 14 14 14 14 14 15 18 19 19 20 20 20 19 19 18 18 17 17 17 16 16 16 16 16 17 17 17 17 16 16 15 17 22 25 25 25 26 26 26 26 26 27 25 24 22 21 21 21 21 21 21 21 22 22 21 21 21 21 21
17 16 16 16 16 16 15 15 14 14 14 14 14 14 15 16 18 18 19 20 21 20 20 19 19 18 18 17 17 16 16 16 16 15 15 16 16 16 16 15 13 17 22 25 25 25 25 25 26 26 26 27 25 23 22 21 21 21 21 21 21 21 21 21 21 21 21 21 21
16 15 15 15 15 15 14 14 14 14 14 14 13 15 16 18 19 19 20 21 21 21 20 19 19 18 17 17 16 16 16 16 14 13 13 14 15 15 15 15 14 18 23 25 25 25 25 25 25 26 26 26 24 22 21 21 21 21 21 21 21 21 21 21 21 21 21 21 21
15 15 14 14 14 14 14 14 14 14 13 13 14 15 17 20 20 20 21 22 21 20 19 18 18 17 17 16 15 15 16 14 13 13 13 13 14 14 14 14 14 18 23 25 25 25 25 25 25 26 25 25 23 22 21 21 21 21 21 21 21 21 21 21 21 21 21 21 21
15 15 14 14 14 14 14 14 13 13 13 13 15 16 18 19 19 20 20 21 20 19 18 18 17 16 16 16 15 15 15 15 14 13 14 14 13 13 12 13 13 17 21 25 25 25 25 25 25 25 25 23 22 21 21 21 21 21 21 21 21 21 21 21 21 21 21 21 21
15 15 15 14 14 14 14 13 13 13 13 14 16 17 18 19 19 19 20 21 19 18 17 17 16 16 16 16 16 15 15 14 15 14 14 13 12 12 13 14 14 16 20 23 25 25 25 25 25 25 25 23 22 22 21 21 21 21 21 20 21 21 21 21 21 21 21 21 23
15 15 15 14 14 14 13 13 13 13 14 16 17 18 18 19 19 19 20 20 19 17 17 16 16 16 16 17 16 15 14 13 14 14 14 12 12 14 16 15 15 16 19 22 24 25 25 25 25 25 25 24 23 22 21 21 21 20 20 20 20 20 20 21 21 21 21 22 25
16 15 15 14 14 14 13 13 13 14 16 16 17 17 18 19 19 20 20 19 18 17 16 16 16 16 16 17 16 15 13 13 13 13 13 13 13 16 19 16 14 15 17 21 23 24 25 25 25 26 25 24 23 22 21 21 21 20 19 19 19 20 20 20 21 21 21 23 26
15 15 15 14 14 14 14 14 14 16 17 17 17 18 19 20 20 19 17 16 16 16 16 15 15 15 16 17 16 15 13 12 13 12 12 14 14 16 17 15 13 13 14 18 22 24 25 25 26 26 26 24 23 22 21 21 20 19 19 19 19 20 20 21 21 21 23 24 26